Delta, CO

6:30 AM MDT on October 24, 2017 (GMT -0600)
Delta

Weather History for KAJZ - August, 2013

Change the Weather History Date:

Monday, August 5, 2013

  Actual Average (KMTJ) Record (KMTJ)
Temperature  
Mean Temperature 74 °F -  
Max Temperature 84 °F 85 °F 93 °F (2001)
Min Temperature 63 °F 54 °F 51 °F (1996)
Cooling Degree Days 8    
Growing Degree Days 24 (Base 50)    
Moisture  
Dew Point 54 °F    
Average Humidity 54    
Maximum Humidity 81    
Minimum Humidity 26    
Precipitation  
Precipitation 0.00 in - - ()
Sea Level Pressure  
Sea Level Pressure 30.18 in    
Wind  
Wind Speed 5 mph (ENE)    
Max Wind Speed 13 mph    
Max Gust Speed 17 mph    
Visibility 8 miles    
Events Thunderstorm    
Averages and records for this station are not official NWS values.
T = Trace of Precipitation, MM = Missing Value Source: NWS Daily Summary

Daily Weather History Graph

Daily Weather History Graph

Search for Another Location

Airport or City:

Trip Planner

Search our weather history database for the weather conditions in past years. The results will help you decide how hot, cold, wet, or windy it might be!

Date:

Astronomy

Aug. 05, 2013 Rise Set
Actual Time 6:17 AM MDT 8:18 PM MDT
Civil Twilight 5:48 AM MDT 8:47 PM MDT
Nautical Twilight 5:12 AM MDT 9:23 PM MDT
Astronomical Twilight 4:33 AM MDT 10:01 PM MDT
Moon 5:15 AM MDT (8/5) 7:21 PM MDT (8/5)
Length of Visible Light 14h 59m
Length of Day
14h 01m
Waning Crescent, 1% of the Moon is Illuminated
Aug 5
Waning Crescent
Aug 6
New
Aug 14
First Quarter
Aug 20
Full
Aug 28
Last Quarter

Hourly Weather History & Observations

Time (MDT) Temp. Heat Index Dew Point Humidity Pressure Visibility Wind Dir Wind Speed Gust Speed Precip Events Conditions
12:15 AM 66.4 °F - 57.6 °F 73% 30.23 in 10.0 mi NNE 4.6 mph - N/A   Clear
12:35 AM 66.2 °F - 57.2 °F 73% 30.23 in 7.0 mi Calm Calm - N/A   Clear
12:55 AM 65.3 °F - 57.6 °F 76% 30.23 in 7.0 mi NE 5.8 mph - N/A   Clear
1:15 AM 65.5 °F - 57.4 °F 75% 30.23 in 10.0 mi NE 4.6 mph - N/A   Clear
1:35 AM 65.3 °F - 57.6 °F 76% 30.23 in 7.0 mi NE 6.9 mph - N/A   Clear
1:55 AM 66.2 °F - 56.3 °F 70% 30.23 in 10.0 mi NE 8.1 mph - N/A   Scattered Clouds
2:15 AM 65.8 °F - 57.0 °F 73% 30.23 in 10.0 mi ENE 6.9 mph - N/A   Scattered Clouds
2:35 AM 65.7 °F - 57.2 °F 74% 30.23 in 7.0 mi NNE 6.9 mph - N/A   Scattered Clouds
2:55 AM 65.7 °F - 57.6 °F 75% 30.23 in 10.0 mi North 5.8 mph - N/A   Clear
3:15 AM 65.3 °F - 58.1 °F 77% 30.23 in 10.0 mi NE 5.8 mph - N/A   Scattered Clouds
3:35 AM 65.7 °F - 57.7 °F 76% 30.23 in 10.0 mi NE 3.5 mph - N/A   Mostly Cloudy
3:55 AM 64.6 °F - 57.9 °F 79% 30.22 in 7.0 mi East 4.6 mph - N/A   Scattered Clouds
4:15 AM 64.0 °F - 58.1 °F 81% 30.21 in 10.0 mi ENE 4.6 mph - N/A   Clear
4:35 AM 63.9 °F - 57.7 °F 80% 30.20 in 7.0 mi ENE 5.8 mph - N/A   Clear
4:55 AM 63.9 °F - 57.4 °F 79% 30.20 in 10.0 mi ENE 4.6 mph - N/A   Clear
5:15 AM 64.8 °F - 56.7 °F 75% 30.20 in 7.0 mi NE 5.8 mph - N/A   Clear
5:35 AM 64.4 °F - 57.4 °F 78% 30.21 in 7.0 mi ENE 6.9 mph - N/A   Clear
5:55 AM 64.4 °F - 55.9 °F 74% 30.21 in 7.0 mi ENE 6.9 mph - N/A   Clear
6:15 AM 64.4 °F - 55.4 °F 73% 30.22 in 10.0 mi NE 9.2 mph - N/A   Clear
6:35 AM 65.1 °F - 54.5 °F 68% 30.23 in 7.0 mi ENE 9.2 mph - N/A   Clear
6:55 AM 65.1 °F - 55.4 °F 71% 30.23 in 5.0 mi ENE 5.8 mph - N/A   Haze
7:15 AM 64.9 °F - 56.3 °F 74% 30.23 in 7.0 mi NNE 3.5 mph - N/A   Mostly Cloudy
7:35 AM 65.7 °F - 56.5 °F 72% 30.24 in 7.0 mi East 3.5 mph - N/A   Scattered Clouds
7:55 AM 66.2 °F - 56.1 °F 70% 30.25 in 7.0 mi East 3.5 mph - N/A   Clear
8:15 AM 66.2 °F - 55.6 °F 69% 30.25 in 7.0 mi ENE 4.6 mph - N/A   Scattered Clouds
8:35 AM 67.3 °F - 55.4 °F 66% 30.25 in 5.0 mi ENE 6.9 mph - N/A   Haze
8:55 AM 68.0 °F - 56.5 °F 67% 30.25 in 5.0 mi ENE 6.9 mph - N/A   Haze
9:15 AM 68.5 °F - 58.5 °F 70% 30.25 in 7.0 mi ESE 4.6 mph - N/A   Scattered Clouds
9:35 AM 68.5 °F - 58.5 °F 70% 30.25 in 7.0 mi East 3.5 mph - N/A   Mostly Cloudy
9:55 AM 68.9 °F - 58.5 °F 69% 30.25 in 7.0 mi Calm Calm - N/A   Scattered Clouds
10:15 AM 70.9 °F - 59.0 °F 66% 30.25 in 5.0 mi ENE 3.5 mph - N/A   Haze
10:35 AM 72.1 °F - 58.1 °F 61% 30.25 in 5.0 mi East 3.5 mph - N/A   Haze
10:55 AM 73.6 °F - 57.2 °F 56% 30.24 in 5.0 mi ENE 3.5 mph - N/A   Haze
11:15 AM 75.9 °F - 57.4 °F 52% 30.24 in 7.0 mi Calm Calm - N/A   Scattered Clouds
11:35 AM 76.6 °F - 57.6 °F 52% 30.23 in 7.0 mi SE 3.5 mph - N/A   Mostly Cloudy
11:55 AM 77.7 °F - 55.9 °F 47% 30.23 in 7.0 mi Calm Calm - N/A   Scattered Clouds
12:15 PM 79.3 °F - 54.3 °F 42% 30.22 in 7.0 mi ESE 4.6 mph - N/A   Clear
12:35 PM 81.1 °F 80.8 °F 54.5 °F 40% 30.21 in 10.0 mi SE 5.8 mph - N/A   Clear
12:55 PM 82.6 °F - 51.1 °F 33% 30.19 in 7.0 mi ESE 6.9 mph - N/A   Clear
1:15 PM 83.7 °F 82.3 °F 53.4 °F 35% 30.18 in 10.0 mi East 5.8 mph - N/A Thunderstorm Clear
1:35 PM 84.7 °F - 52.5 °F 33% 30.17 in 10.0 mi South 4.6 mph - N/A   Clear
1:55 PM 83.3 °F - 52.5 °F 34% 30.17 in 10.0 mi SE 3.5 mph - N/A Thunderstorm Clear
2:15 PM 84.4 °F 83.1 °F 54.5 °F 36% 30.16 in 7.0 mi SSW 8.1 mph - N/A   Clear
2:35 PM 84.0 °F 82.9 °F 54.9 °F 37% 30.16 in 10.0 mi SSW 8.1 mph - N/A   Clear
2:55 PM 83.3 °F 82.2 °F 54.7 °F 37% 30.16 in 5.0 mi WSW 12.7 mph 17.3 mph N/A   Haze
3:15 PM 82.2 °F - 52.2 °F 35% 30.16 in 5.0 mi SW 10.4 mph - N/A   Haze
3:35 PM 80.6 °F - 51.3 °F 36% 30.15 in 7.0 mi SW 6.9 mph - N/A   Scattered Clouds
3:55 PM 80.4 °F 80.1 °F 53.2 °F 39% 30.15 in 10.0 mi SW 5.8 mph - N/A   Clear
4:15 PM 81.5 °F 80.9 °F 54.1 °F 39% 30.14 in 7.0 mi SSW 11.5 mph - N/A   Clear
4:35 PM 82.2 °F - 49.8 °F 32% 30.13 in 7.0 mi SW 6.9 mph - N/A   Clear
4:55 PM 82.4 °F - 51.8 °F 35% 30.12 in 7.0 mi WSW 5.8 mph - N/A   Clear
5:15 PM 82.8 °F - 50.4 °F 32% 30.11 in 5.0 mi Calm Calm - N/A   Haze
5:35 PM 83.8 °F - 50.0 °F 31% 30.11 in 5.0 mi Calm Calm - N/A   Haze
5:55 PM 82.8 °F - 50.9 °F 33% 30.10 in 7.0 mi Calm Calm - N/A   Clear
6:15 PM 84.0 °F - 50.9 °F 32% 30.09 in 7.0 mi Calm Calm - N/A   Clear
6:35 PM 84.4 °F - 46.8 °F 27% 30.09 in 7.0 mi Calm Calm - N/A   Clear
6:55 PM 84.9 °F - 46.8 °F 26% 30.09 in 7.0 mi Calm Calm - N/A   Clear
7:15 PM 84.4 °F - 47.5 °F 28% 30.09 in 10.0 mi Calm Calm - N/A   Clear
7:35 PM 83.1 °F - 48.2 °F 30% 30.08 in 7.0 mi Calm Calm - N/A   Clear
7:55 PM 81.5 °F - 48.6 °F 32% 30.08 in 7.0 mi Calm Calm - N/A   Clear
8:15 PM 78.4 °F - 51.8 °F 39% 30.08 in 10.0 mi NE 4.6 mph - N/A   Clear
8:35 PM 76.1 °F - 52.2 °F 43% 30.09 in 7.0 mi NNE 5.8 mph - N/A   Clear
8:55 PM 75.0 °F - 50.9 °F 43% 30.10 in 7.0 mi North 6.9 mph - N/A   Clear
9:15 PM 73.6 °F - 51.3 °F 45% 30.11 in 10.0 mi North 5.8 mph - N/A   Clear
9:35 PM 74.8 °F - 50.0 °F 42% 30.11 in 10.0 mi NW 4.6 mph - N/A   Clear
9:55 PM 75.0 °F - 51.8 °F 44% 30.12 in 10.0 mi Calm Calm - N/A   Scattered Clouds
10:15 PM 74.8 °F - 48.7 °F 40% 30.12 in 10.0 mi Calm Calm - N/A   Clear
10:35 PM 72.7 °F - 50.4 °F 45% 30.13 in 10.0 mi Calm Calm - N/A   Clear
10:55 PM 71.2 °F - 52.2 °F 51% 30.13 in 10.0 mi East 6.9 mph - N/A   Clear
11:15 PM 71.6 °F - 51.8 °F 50% 30.12 in 10.0 mi East 4.6 mph - N/A   Clear
11:35 PM 69.8 °F - 52.5 °F 54% 30.12 in 7.0 mi NNE 4.6 mph - N/A   Clear
11:55 PM 69.8 °F - 52.2 °F 53% 30.13 in 7.0 mi NE 6.9 mph - N/A   Clear